| time (UTC) | temp C | wind direction | speed KPH | gust KPH | rain 1hr cm | rain 24hr cm | rain mn cm | humidity % | barometer mb |
| 20260507073025 | 27 | 281 | 0.0 | 8.0 | 0.00 | 0.00 | 0.00 | 86 | 1009.2 |
| 20260507071522 | 27 | 279 | 0.0 | 0.0 | 0.00 | 0.00 | 0.00 | 86 | 1009.2 |
| 20260507070023 | 27 | 311 | 4.8 | 12.9 | 0.00 | 0.00 | 0.00 | 87 | 1009.3 |
| 20260507064518 | 27 | 265 | 0.0 | 9.7 | 0.00 | 0.00 | 0.00 | 87 | 1009.6 |
| 20260507063018 | 27 | 289 | 6.4 | 11.3 | 0.00 | 0.00 | 0.00 | 88 | 1009.6 |
| 20260507061518 | 27 | 272 | 1.6 | 9.7 | 0.00 | 0.00 | 0.00 | 88 | 1009.8 |
| 20260507060017 | 27 | 270 | 3.2 | 14.5 | 0.00 | 0.00 | 0.00 | 88 | 1009.7 |
| 20260507054513 | 27 | 288 | 8.0 | 17.7 | 0.00 | 0.00 | 0.00 | 87 | 1009.8 |
| 20260507053010 | 27 | 261 | 3.2 | 12.9 | 0.00 | 0.00 | 0.00 | 85 | 1009.9 |
| 20260507051509 | 27 | 286 | 3.2 | 11.3 | 0.00 | 0.00 | 0.00 | 84 | 1010.0 |
| 20260507050020 | 27 | 273 | 1.6 | 8.0 | 0.00 | 0.00 | 0.00 | 84 | 1010.1 |
| 20260507044504 | 27 | 261 | 6.4 | 12.9 | 0.00 | 0.00 | 0.00 | 84 | 1010.0 |
| 20260507043003 | 27 | 219 | 3.2 | 12.9 | 0.00 | 0.00 | 0.00 | 82 | 1009.9 |
| 20260507041501 | 27 | 265 | 4.8 | 12.9 | 0.00 | 0.00 | 0.00 | 80 | 1010.0 |
| 20260507040103 | 27 | 272 | 1.6 | 9.7 | 0.00 | 0.00 | 0.00 | 78 | 1010.1 |
| 20260507034559 | 28 | 237 | 1.6 | 9.7 | 0.00 | 0.00 | 0.00 | 76 | 1009.9 |
| 20260507033053 | 28 | 288 | 3.2 | 11.3 | 0.00 | 0.00 | 0.00 | 74 | 1009.9 |
| 20260507031554 | 28 | 286 | 3.2 | 9.7 | 0.00 | 0.00 | 0.00 | 74 | 1009.8 |
| 20260507030047 | 28 | 250 | 3.2 | 11.3 | 0.00 | 0.00 | 0.00 | 73 | 1009.8 |
| 20260507024548 | 28 | 267 | 4.8 | 9.7 | 0.00 | 0.00 | 0.00 | 73 | 1009.7 |
| 20260507023042 | 28 | 229 | 3.2 | 8.0 | 0.00 | 0.00 | 0.00 | 73 | 1009.4 |
| 20260507021553 | 29 | 241 | 4.8 | 9.7 | 0.00 | 0.00 | 0.00 | 72 | 1009.3 |
| 20260507020034 | 28 | 227 | 4.8 | 14.5 | 0.00 | 0.00 | 0.00 | 71 | 1009.0 |
| 20260507014532 | 29 | 209 | 1.6 | 12.9 | 0.00 | 0.00 | 0.00 | 75 | 1008.8 |
| 20260507013034 | 30 | 206 | 8.0 | 12.9 | 0.00 | 0.00 | 0.00 | 75 | 1008.6 |
| 20260507011530 | 30 | 245 | 3.2 | 9.7 | 0.00 | 0.00 | 0.00 | 73 | 1008.4 |
| 20260507010029 | 30 | 198 | 3.2 | 9.7 | 0.00 | 0.00 | 0.00 | 72 | 1008.3 |
| 20260507004520 | 30 | 213 | 8.0 | 16.1 | 0.00 | 0.00 | 0.00 | 71 | 1008.1 |
| 20260507003015 | 31 | 200 | 11.3 | 17.7 | 0.00 | 0.00 | 0.00 | 68 | 1007.9 |
| 20260507001515 | 31 | 219 | 11.3 | 17.7 | 0.00 | 0.00 | 0.00 | 67 | 1007.8 |
| 20260507000012 | 31 | 222 | 12.9 | 29.0 | 0.00 | 0.00 | 0.00 | 66 | 1007.8 |
| 20260506234512 | 31 | 206 | 11.3 | 33.8 | 0.00 | 0.00 | 0.00 | 64 | 1007.7 |
| 20260506233009 | 32 | 248 | 16.1 | 32.2 | 0.00 | 0.00 | 0.00 | 63 | 1007.6 |
| 20260506231509 | 32 | 231 | 19.3 | 37.0 | 0.00 | 0.00 | 0.00 | 61 | 1007.6 |
| 20260506230006 | 32 | 190 | 16.1 | 37.0 | 0.00 | 0.00 | 0.00 | 59 | 1007.5 |
| 20260506224506 | 32 | 197 | 20.9 | 40.2 | 0.00 | 0.00 | 0.00 | 58 | 1007.4 |
| 20260506223007 | 32 | 189 | 22.5 | 41.8 | 0.00 | 0.00 | 0.00 | 57 | 1007.2 |
| 20260506221505 | 33 | 163 | 27.4 | 45.1 | 0.00 | 0.00 | 0.00 | 55 | 1007.1 |
| 20260506220036 | 33 | 194 | 25.7 | 41.8 | 0.00 | 0.00 | 0.00 | 53 | 1007.0 |
| 20260506214533 | 33 | 166 | 25.7 | 43.5 | 0.00 | 0.00 | 0.00 | 52 | 1007.1 |
| 20260506213032 | 33 | 188 | 27.4 | 40.2 | 0.00 | 0.00 | 0.00 | 52 | 1007.0 |
| 20260506211530 | 34 | 183 | 22.5 | 40.2 | 0.00 | 0.00 | 0.00 | 51 | 1007.1 |
| 20260506210034 | 34 | 186 | 27.4 | 41.8 | 0.00 | 0.00 | 0.00 | 46 | 1007.1 |
| 20260506204545 | 35 | 236 | 20.9 | 35.4 | 0.00 | 0.00 | 0.00 | 43 | 1007.4 |
| 20260506203030 | 35 | 360 | 27.4 | 49.9 | 0.00 | 0.00 | 0.00 | 44 | 1007.3 |
| 20260506201529 | 35 | 166 | 25.7 | 46.7 | 0.00 | 0.00 | 0.00 | 44 | 1007.5 |
| 20260506200025 | 35 | 360 | 20.9 | 40.2 | 0.00 | 0.00 | 0.00 | 45 | 1007.7 |
| 20260506200023 | 35 | 169 | 20.9 | 40.2 | 0.00 | 0.00 | 0.00 | 45 | 1007.7 |
| 20260506194522 | 35 | 360 | 16.1 | 35.4 | 0.00 | 0.00 | 0.00 | 46 | 1007.7 |
| 20260506193020 | 35 | 234 | 19.3 | 45.1 | 0.00 | 0.00 | 0.00 | 47 | 1007.8 |
| 20260506191518 | 35 | 226 | 17.7 | 38.6 | 0.00 | 0.00 | 0.00 | 45 | 1008.0 |
| 20260506190017 | 35 | 180 | 22.5 | 41.8 | 0.00 | 0.00 | 0.00 | 48 | 1007.9 |
| 20260506184516 | 35 | 203 | 24.1 | 43.5 | 0.00 | 0.00 | 0.00 | 47 | 1008.0 |
| 20260506183016 | 35 | 176 | 22.5 | 40.2 | 0.00 | 0.00 | 0.00 | 47 | 1008.2 |
| 20260506181519 | 35 | 155 | 16.1 | 38.6 | 0.00 | 0.00 | 0.00 | 46 | 1008.4 |
| 20260506180015 | 35 | 190 | 17.7 | 40.2 | 0.00 | 0.00 | 0.00 | 46 | 1008.5 |
| 20260506174509 | 35 | 240 | 20.9 | 35.4 | 0.00 | 0.00 | 0.00 | 46 | 1008.7 |
| 20260506173007 | 35 | 182 | 17.7 | 35.4 | 0.00 | 0.00 | 0.00 | 51 | 1008.7 |
| 20260506171510 | 35 | 180 | 19.3 | 33.8 | 0.00 | 0.00 | 0.00 | 53 | 1008.8 |
| 20260506170003 | 35 | 172 | 19.3 | 32.2 | 0.00 | 0.00 | 0.00 | 54 | 1008.9 |
| 20260506164501 | 35 | 167 | 16.1 | 30.6 | 0.00 | 0.00 | 0.00 | 56 | 1009.1 |
| 20260506163101 | 34 | 144 | 14.5 | 25.7 | 0.00 | 0.00 | 0.00 | 58 | 1009.2 |
| 20260506161604 | 34 | 114 | 3.2 | 22.5 | 0.00 | 0.00 | 0.00 | 58 | 1009.3 |
| 20260506160057 | 34 | 228 | 9.7 | 20.9 | 0.00 | 0.00 | 0.00 | 50 | 1009.4 |
| 20260506154550 | 33 | 203 | 16.1 | 24.1 | 0.00 | 0.00 | 0.00 | 51 | 1009.4 |
| 20260506153046 | 32 | 188 | 11.3 | 20.9 | 0.00 | 0.00 | 0.00 | 55 | 1009.5 |
| 20260506151558 | 32 | 252 | 1.6 | 8.0 | 0.00 | 0.00 | 0.00 | 62 | 1009.6 |
| 20260506150036 | 31 | 262 | 6.4 | 14.5 | 0.00 | 0.00 | 0.00 | 65 | 1009.6 |
| 20260506144533 | 31 | 309 | 6.4 | 16.1 | 0.00 | 0.00 | 0.00 | 66 | 1009.7 |
| 20260506143042 | 30 | 306 | 0.0 | 6.4 | 0.00 | 0.00 | 0.00 | 71 | 1009.7 |
| 20260506141524 | 29 | 305 | 0.0 | 6.4 | 0.00 | 0.00 | 0.00 | 75 | 1009.8 |
| 20260506140032 | 28 | 306 | 0.0 | 1.6 | 0.00 | 0.00 | 0.00 | 79 | 1009.8 |
| 20260506134523 | 27 | 224 | 1.6 | 4.8 | 0.00 | 0.00 | 0.00 | 81 | 1009.8 |
| 20260506133024 | 26 | 224 | 1.6 | 6.4 | 0.00 | 0.00 | 0.00 | 83 | 1009.8 |
| 20260506131525 | 25 | 303 | 1.6 | 3.2 | 0.00 | 0.00 | 0.00 | 85 | 1009.6 |
| 20260506130018 | 25 | 302 | 1.6 | 11.3 | 0.00 | 0.00 | 0.00 | 86 | 1009.5 |
| 20260506124517 | 24 | 300 | 3.2 | 8.0 | 0.00 | 0.00 | 0.00 | 88 | 1009.3 |
| 20260506123017 | 24 | 296 | 0.0 | 0.0 | 0.00 | 0.00 | 0.00 | 88 | 1009.2 |
| 20260506121514 | 24 | 290 | 0.0 | 6.4 | 0.00 | 0.00 | 0.00 | 88 | 1009.2 |
| 20260506120014 | 24 | 325 | 0.0 | 0.0 | 0.00 | 0.00 | 0.00 | 87 | 1009.1 |
| 20260506114516 | 25 | 328 | 0.0 | 0.0 | 0.00 | 0.00 | 0.00 | 87 | 1009.0 |
| 20260506113013 | 25 | 328 | 0.0 | 0.0 | 0.00 | 0.00 | 0.00 | 87 | 1008.9 |
| 20260506111541 | 25 | 13 | 0.0 | 0.0 | 0.00 | 0.00 | 0.00 | 88 | 1008.7 |
| 20260506110048 | 25 | 13 | 0.0 | 0.0 | 0.00 | 0.00 | 0.00 | 88 | 1008.6 |
| 20260506104536 | 25 | 13 | 0.0 | 0.0 | 0.00 | 0.00 | 0.00 | 88 | 1008.4 |
| 20260506103035 | 25 | 159 | 0.0 | 0.0 | 0.00 | 0.00 | 0.00 | 87 | 1008.3 |
| 20260506101548 | 25 | 159 | 0.0 | 0.0 | 0.00 | 0.00 | 0.00 | 87 | 1008.2 |
| 20260506100032 | 25 | 159 | 0.0 | 0.0 | 0.00 | 0.00 | 0.00 | 87 | 1008.1 |
| 20260506094529 | 25 | 159 | 0.0 | 6.4 | 0.00 | 0.00 | 0.00 | 86 | 1008.1 |
| 20260506093027 | 26 | 346 | 0.0 | 0.0 | 0.00 | 0.00 | 0.00 | 85 | 1008.1 |
| 20260506091528 | 26 | 346 | 0.0 | 6.4 | 0.00 | 0.00 | 0.00 | 85 | 1008.1 |
| 20260506090025 | 26 | 326 | 3.2 | 4.8 | 0.00 | 0.00 | 0.00 | 85 | 1008.1 |
| 20260506084554 | 26 | 328 | 3.2 | 8.0 | 0.00 | 0.00 | 0.00 | 84 | 1008.2 |
| 20260506083053 | 26 | 327 | 0.0 | 0.0 | 0.00 | 0.00 | 0.00 | 83 | 1008.3 |
| 20260506081548 | 26 | 26 | 1.6 | 8.0 | 0.00 | 0.00 | 0.00 | 83 | 1008.6 |